TimeEST,TemperatureF,Dew PointF,Humidity,Sea Level PressureIn,VisibilityMPH,Wind Direction,Wind SpeedMPH,Gust SpeedMPH,PrecipitationIn,Events,Conditions,WindDirDegrees,DateUTC
12:15 AM,30.2,12.2,47,30.04,10.0,North,8.1,-,N/A,,Overcast,360,2013-01-18 05:15:00
12:35 AM,28.4,12.2,51,30.03,10.0,North,8.1,-,N/A,,Overcast,350,2013-01-18 05:35:00
12:55 AM,28.4,12.2,51,30.04,10.0,North,9.2,-,N/A,,Overcast,350,2013-01-18 05:55:00
1:15 AM,28.4,14.0,55,30.01,10.0,NNE,13.8,18.4,N/A,,Overcast,30,2013-01-18 06:15:00
1:35 AM,28.4,12.2,51,30.01,10.0,North,10.4,-,N/A,,Overcast,10,2013-01-18 06:35:00
1:55 AM,28.4,12.2,51,30.03,10.0,North,13.8,18.4,N/A,,Overcast,350,2013-01-18 06:55:00
2:15 AM,28.4,10.4,47,30.02,10.0,North,10.4,-,N/A,,Overcast,360,2013-01-18 07:15:00
2:35 AM,28.4,10.4,47,30.05,10.0,North,6.9,-,N/A,,Overcast,360,2013-01-18 07:35:00
2:55 AM,26.6,10.4,51,30.05,10.0,North,10.4,-,N/A,,Overcast,350,2013-01-18 07:55:00
3:15 AM,26.6,10.4,51,30.01,10.0,North,11.5,-,N/A,,Mostly Cloudy,350,2013-01-18 08:15:00
3:35 AM,26.6,10.4,51,30.04,10.0,NNE,12.7,-,N/A,,Mostly Cloudy,20,2013-01-18 08:35:00
3:55 AM,26.6,6.8,43,30.05,10.0,North,13.8,19.6,N/A,,Overcast,360,2013-01-18 08:55:00
4:15 AM,26.6,6.8,43,30.04,10.0,North,12.7,17.3,N/A,,Overcast,360,2013-01-18 09:15:00
4:35 AM,26.6,6.8,43,30.07,10.0,North,13.8,-,N/A,,Overcast,350,2013-01-18 09:35:00
4:55 AM,24.8,6.8,46,30.07,10.0,North,11.5,-,N/A,,Overcast,350,2013-01-18 09:55:00
5:15 AM,24.8,5.0,43,30.08,10.0,North,13.8,20.7,N/A,,Overcast,360,2013-01-18 10:15:00
5:35 AM,24.8,3.2,40,30.10,10.0,North,17.3,-,N/A,,Overcast,350,2013-01-18 10:35:00
5:55 AM,23.0,3.2,43,30.13,10.0,North,11.5,18.4,N/A,,Mostly Cloudy,360,2013-01-18 10:55:00
6:15 AM,21.2,5.0,50,30.15,10.0,North,11.5,19.6,N/A,,Clear,360,2013-01-18 11:15:00
6:35 AM,21.2,3.2,46,30.16,10.0,North,11.5,-,N/A,,Clear,360,2013-01-18 11:35:00
6:55 AM,21.2,3.2,46,30.17,10.0,North,10.4,17.3,N/A,,Clear,350,2013-01-18 11:55:00
7:15 AM,19.4,1.4,46,30.19,10.0,North,8.1,-,N/A,,Clear,350,2013-01-18 12:15:00
7:35 AM,19.4,3.2,49,30.20,10.0,North,10.4,16.1,N/A,,Clear,350,2013-01-18 12:35:00
7:55 AM,19.4,1.4,46,30.23,10.0,NNW,11.5,-,N/A,,Clear,330,2013-01-18 12:55:00
8:15 AM,19.4,-0.4,42,30.25,10.0,NW,12.7,16.1,N/A,,Clear,320,2013-01-18 13:15:00
8:35 AM,19.4,-0.4,42,30.26,10.0,NNW,12.7,16.1,N/A,,Clear,330,2013-01-18 13:35:00
8:55 AM,19.4,-0.4,42,30.27,10.0,NNW,13.8,21.9,N/A,,Clear,330,2013-01-18 13:55:00
9:15 AM,19.4,-2.2,39,30.29,10.0,North,13.8,-,N/A,,Clear,350,2013-01-18 14:15:00
9:35 AM,19.4,-0.4,42,30.30,10.0,NNW,10.4,20.7,N/A,,Clear,330,2013-01-18 14:35:00
9:55 AM,19.4,-2.2,39,30.30,10.0,NNW,11.5,-,N/A,,Clear,330,2013-01-18 14:55:00
10:15 AM,21.2,-0.4,39,30.31,10.0,NW,10.4,-,N/A,,Clear,310,2013-01-18 15:15:00
10:55 AM,21.2,-0.4,39,30.32,10.0,NNW,11.5,20.7,N/A,,Clear,330,2013-01-18 15:55:00
11:35 AM,21.2,-0.4,39,30.31,10.0,NNW,16.1,21.9,N/A,,Clear,330,2013-01-18 16:35:00
11:55 AM,21.2,-0.4,39,30.32,10.0,NW,15.0,21.9,N/A,,Clear,320,2013-01-18 16:55:00
12:15 PM,21.2,-0.4,39,30.31,10.0,WNW,15.0,21.9,N/A,,Clear,290,2013-01-18 17:15:00
12:35 PM,23.0,-2.2,33,30.31,10.0,NW,11.5,24.2,N/A,,Clear,320,2013-01-18 17:35:00
12:55 PM,23.0,-0.4,36,30.32,10.0,NW,12.7,18.4,N/A,,Clear,310,2013-01-18 17:55:00
1:15 PM,23.0,-2.2,33,30.33,10.0,NW,13.8,18.4,N/A,,Clear,320,2013-01-18 18:15:00
1:35 PM,23.0,-2.2,33,30.33,10.0,NW,11.5,24.2,N/A,,Clear,320,2013-01-18 18:35:00
1:55 PM,24.8,-2.2,31,30.33,10.0,NW,13.8,20.7,N/A,,Clear,310,2013-01-18 18:55:00
2:35 PM,24.8,-2.2,31,30.33,10.0,WNW,12.7,-,N/A,,Clear,300,2013-01-18 19:35:00
2:55 PM,24.8,-2.2,31,30.35,10.0,NW,12.7,19.6,N/A,,Clear,320,2013-01-18 19:55:00
3:15 PM,24.8,-2.2,31,30.35,10.0,WNW,12.7,18.4,N/A,,Clear,300,2013-01-18 20:15:00
3:35 PM,23.0,-0.4,36,30.35,10.0,NW,8.1,18.4,N/A,,Clear,310,2013-01-18 20:35:00
3:55 PM,24.8,-2.2,31,30.36,10.0,West,9.2,-,N/A,,Clear,260,2013-01-18 20:55:00
4:15 PM,23.0,-0.4,36,30.36,10.0,West,11.5,18.4,N/A,,Clear,270,2013-01-18 21:15:00
4:35 PM,21.2,-2.2,36,30.37,10.0,West,12.7,17.3,N/A,,Clear,280,2013-01-18 21:35:00
5:15 PM,21.2,-0.4,39,30.39,10.0,West,5.8,-,N/A,,Clear,270,2013-01-18 22:15:00
5:35 PM,21.2,-0.4,39,30.39,10.0,West,5.8,-,N/A,,Clear,280,2013-01-18 22:35:00
5:55 PM,21.2,-0.4,39,30.40,10.0,West,5.8,-,N/A,,Clear,280,2013-01-18 22:55:00
6:15 PM,19.4,-0.4,42,30.40,10.0,West,4.6,-,N/A,,Clear,270,2013-01-18 23:15:00
6:35 PM,17.6,-0.4,45,30.41,10.0,Calm,Calm,-,N/A,,Clear,0,2013-01-18 23:35:00
6:55 PM,17.6,-0.4,45,30.42,10.0,Calm,Calm,-,N/A,,Clear,0,2013-01-18 23:55:00
7:35 PM,17.6,1.4,49,30.43,10.0,SSW,3.5,-,N/A,,Clear,210,2013-01-19 00:35:00
7:55 PM,17.6,1.4,49,30.42,10.0,Calm,Calm,-,N/A,,Clear,0,2013-01-19 00:55:00
8:15 PM,17.6,1.4,49,30.42,10.0,SW,3.5,-,N/A,,Clear,230,2013-01-19 01:15:00
8:35 PM,17.6,1.4,49,30.42,10.0,South,3.5,-,N/A,,Clear,180,2013-01-19 01:35:00
8:55 PM,17.6,1.4,49,30.43,10.0,Calm,Calm,-,N/A,,Clear,0,2013-01-19 01:55:00
9:15 PM,17.6,1.4,49,30.41,10.0,South,4.6,-,N/A,,Clear,190,2013-01-19 02:15:00
10:35 PM,17.6,3.2,53,30.39,10.0,Calm,Calm,-,N/A,,Clear,0,2013-01-19 03:35:00
10:55 PM,17.6,3.2,53,30.39,10.0,SSW,3.5,-,N/A,,Clear,200,2013-01-19 03:55:00
11:15 PM,17.6,3.2,53,30.38,10.0,Calm,Calm,-,N/A,,Clear,0,2013-01-19 04:15:00
11:35 PM,17.6,3.2,53,30.37,10.0,South,3.5,-,N/A,,Clear,190,2013-01-19 04:35:00